Montevideo, MN

6:48 PM CDT on August 25, 2016 (GMT -0500)
Montevideo-Chippewa County

Weather History for KMVE - January, 2014

Change the Weather History Date:

Saturday, January 25, 2014

  Actual Average Record
Temperature  
Mean Temperature 11 °F -  
Max Temperature 21 °F 22 °F 63 °F (1981)
Min Temperature 1 °F 3 °F -18 °F (1972)
Degree Days  
Heating Degree Days 54    
Moisture  
Dew Point 1 °F    
Average Humidity 71    
Maximum Humidity 100    
Minimum Humidity 53    
Precipitation  
Precipitation 0.00 in - - ()
Sea Level Pressure  
Sea Level Pressure 29.82 in    
Wind  
Wind Speed 18 mph (North)    
Max Wind Speed 28 mph    
Max Gust Speed 34 mph    
Visibility 9 miles    
Events Snow    
Averages and records for this station are not official NWS values.
T = Trace of Precipitation, MM = Missing Value Source: NWS Daily Summary

Daily Weather History Graph

Daily Weather History Graph

Search for Another Location

Airport or City:

Trip Planner

Search our weather history database for the weather conditions in past years. The results will help you decide how hot, cold, wet, or windy it might be!

Date:

Astronomy

Jan. 25, 2014 Rise Set
Actual Time 7:49 AM CST 5:21 PM CST
Civil Twilight 7:17 AM CST 5:52 PM CST
Nautical Twilight 6:42 AM CST 6:28 PM CST
Astronomical Twilight 6:07 AM CST 7:03 PM CST
Moon 2:21 AM CST 12:22 PM CST
Length of Visible Light 10h 34m
Length of Day
9h 31m
Waning Crescent, 34% of the Moon is Illuminated
Jan 25
Waning Crescent
Jan 30
New
Feb 6
First Quarter
Feb 14
Full
Feb 22
Last Quarter

Hourly Weather History & Observations

Time (CST) Temp. Windchill Dew Point Humidity Pressure Visibility Wind Dir Wind Speed Gust Speed Precip Events Conditions
12:14 AM 21.2 °F 4.9 °F 15.8 °F 80% 29.76 in 10.0 mi North 23.0 mph 33.4 mph N/A   Overcast
12:34 AM 19.4 °F 1.4 °F 14.0 °F 80% 29.77 in 10.0 mi North 26.5 mph 31.1 mph N/A   Overcast
12:54 AM 17.6 °F -0.6 °F 12.2 °F 79% 29.78 in 10.0 mi NNE 25.3 mph 34.5 mph N/A   Overcast
1:14 AM 17.6 °F 0.9 °F 10.4 °F 73% 29.80 in 10.0 mi NNE 20.7 mph 26.5 mph N/A   Overcast
1:34 AM 15.8 °F -2.7 °F 10.4 °F 79% 29.81 in 10.0 mi NNE 24.2 mph 28.8 mph N/A   Overcast
1:53 AM 14.0 °F -6.2 °F 6.8 °F 73% 29.82 in 10.0 mi North 27.6 mph 34.5 mph N/A Snow Light Snow
2:14 AM 12.2 °F -6.7 °F 3.2 °F 67% 29.84 in 10.0 mi North 21.9 mph 27.6 mph N/A   Clear
2:34 AM 10.4 °F -9.5 °F 1.4 °F 67% 29.85 in 10.0 mi North 23.0 mph 28.8 mph N/A   Clear
2:53 AM 10.4 °F -8.6 °F -0.4 °F 62% 29.86 in 10.0 mi North 20.7 mph 27.6 mph N/A   Clear
3:14 AM 8.6 °F -10.5 °F -0.4 °F 67% 29.87 in 10.0 mi North 19.6 mph 28.8 mph N/A   Clear
3:34 AM 8.6 °F -11.4 °F -4.0 °F 57% 29.87 in 10.0 mi North 21.9 mph 28.8 mph N/A   Clear
3:54 AM 8.6 °F -11.0 °F -4.0 °F 57% 29.88 in 10.0 mi North 20.7 mph 27.6 mph N/A   Clear
4:14 AM 6.8 °F -12.4 °F -5.8 °F 56% 29.89 in 10.0 mi North 18.4 mph 24.2 mph N/A   Clear
4:34 AM 6.8 °F -12.4 °F -5.8 °F 56% 29.90 in 10.0 mi North 18.4 mph 27.6 mph N/A   Clear
4:54 AM 6.8 °F -11.8 °F -5.8 °F 56% 29.91 in 10.0 mi North 17.3 mph 24.2 mph N/A   Clear
5:14 AM 5.0 °F -14.7 °F -5.8 °F 61% 29.91 in 10.0 mi North 18.4 mph 25.3 mph N/A   Clear
5:34 AM 5.0 °F -14.7 °F -5.8 °F 61% 29.92 in 10.0 mi North 18.4 mph 24.2 mph N/A   Clear
5:54 AM 5.0 °F -14.7 °F -5.8 °F 61% 29.94 in 10.0 mi North 18.4 mph 24.2 mph N/A   Clear
6:13 AM 3.2 °F -19.0 °F -5.8 °F 66% 29.95 in 10.0 mi North 23.0 mph 29.9 mph N/A   Clear
6:34 AM 3.2 °F -17.1 °F -5.8 °F 66% 29.96 in 10.0 mi North 18.4 mph 27.6 mph N/A   Clear
6:54 AM 3.2 °F -17.6 °F -5.8 °F 66% 29.98 in 10.0 mi North 19.6 mph 27.6 mph N/A   Clear
7:13 AM 1.4 °F -21.0 °F -5.8 °F 72% 29.98 in 10.0 mi North 21.9 mph 26.5 mph N/A   Clear
7:34 AM 1.4 °F -19.4 °F -5.8 °F 72% 29.99 in 10.0 mi North 18.4 mph 23.0 mph N/A   Clear
7:54 AM 1.4 °F -18.8 °F -5.8 °F 72% 30.01 in 10.0 mi North 17.3 mph - N/A   Clear
8:13 AM 1.4 °F -18.8 °F -5.8 °F 72% 30.01 in 10.0 mi North 17.3 mph 26.5 mph N/A   Clear
8:34 AM 3.2 °F -16.5 °F -4.0 °F 72% 30.01 in 10.0 mi North 17.3 mph 23.0 mph N/A   Clear
8:54 AM 3.2 °F -15.3 °F -5.8 °F 66% 30.02 in 10.0 mi North 15.0 mph 21.9 mph N/A   Clear
9:14 AM 3.2 °F -15.9 °F -4.0 °F 72% 30.02 in 10.0 mi North 16.1 mph 21.9 mph N/A   Clear
9:34 AM 5.0 °F -15.2 °F -4.0 °F 66% 30.02 in 10.0 mi North 19.6 mph 24.2 mph N/A   Clear
9:54 AM 6.8 °F -11.8 °F -2.2 °F 67% 30.02 in 10.0 mi North 17.3 mph 24.2 mph N/A   Clear
10:14 AM 6.8 °F -13.8 °F -4.0 °F 61% 30.03 in 10.0 mi North 21.9 mph 26.5 mph N/A   Clear
10:34 AM 6.8 °F -13.4 °F -4.0 °F 61% 30.03 in 10.0 mi North 20.7 mph 27.6 mph N/A   Clear
10:54 AM 6.8 °F -11.3 °F -4.0 °F 61% 30.03 in 10.0 mi North 16.1 mph 20.7 mph N/A   Clear
11:14 AM 6.8 °F -11.3 °F -4.0 °F 61% 30.03 in 10.0 mi North 16.1 mph - N/A   Clear
11:34 AM 6.8 °F -12.4 °F -4.0 °F 61% 30.02 in 10.0 mi North 18.4 mph 23.0 mph N/A   Clear
11:54 AM 8.6 °F -7.7 °F -0.4 °F 67% 30.01 in 10.0 mi North 13.8 mph 18.4 mph N/A   Clear
12:14 PM 10.4 °F -4.8 °F -0.4 °F 62% 30.00 in 10.0 mi North 12.7 mph 19.6 mph N/A   Clear
12:34 PM 10.4 °F -4.8 °F -2.2 °F 57% 29.99 in 10.0 mi North 12.7 mph - N/A   Clear
12:54 PM 10.4 °F -4.1 °F 1.4 °F 67% 29.97 in 10.0 mi North 11.5 mph 17.3 mph N/A   Clear
1:14 PM 12.2 °F -1.0 °F 1.4 °F 62% 29.95 in 10.0 mi North 10.4 mph 16.1 mph N/A   Clear
1:34 PM 12.2 °F -1.8 °F 1.4 °F 62% 29.95 in 10.0 mi North 11.5 mph - N/A   Clear
1:54 PM 12.2 °F -1.8 °F 1.4 °F 62% 29.94 in 10.0 mi NNW 11.5 mph 19.6 mph N/A   Clear
2:14 PM 14.0 °F -0.2 °F 1.4 °F 57% 29.92 in 10.0 mi NW 12.7 mph 17.3 mph N/A   Clear
2:34 PM 12.2 °F -0.2 °F -2.2 °F 53% 29.91 in 10.0 mi NW 9.2 mph - N/A   Clear
2:54 PM 12.2 °F 2.9 °F -0.4 °F 57% 29.91 in 10.0 mi NNW 5.8 mph - N/A   Clear
3:14 PM 12.2 °F 1.7 °F -0.4 °F 57% 29.89 in 10.0 mi NNW 6.9 mph - N/A   Scattered Clouds
3:34 PM 10.4 °F 0.8 °F -0.4 °F 62% 29.89 in 10.0 mi NNW 5.8 mph - N/A   Mostly Cloudy
3:54 PM 12.2 °F 6.1 °F -0.4 °F 57% 29.89 in 10.0 mi NNW 3.5 mph - N/A   Overcast
4:14 PM 10.4 °F - -0.4 °F 62% 29.87 in 10.0 mi Calm Calm - N/A   Overcast
4:34 PM 10.4 °F - -0.4 °F 62% 29.84 in 10.0 mi Calm Calm - N/A   Overcast
4:54 PM 10.4 °F - -0.4 °F 62% 29.83 in 10.0 mi Calm Calm - N/A   Overcast
5:13 PM 10.4 °F - -0.4 °F 62% 29.80 in 10.0 mi Calm Calm - N/A   Overcast
5:34 PM 10.4 °F 2.2 °F 1.4 °F 67% 29.78 in 10.0 mi South 4.6 mph - N/A   Overcast
5:54 PM 10.4 °F 0.8 °F 1.4 °F 67% 29.75 in 10.0 mi South 5.8 mph - N/A   Overcast
6:13 PM 10.4 °F -0.4 °F 1.4 °F 67% 29.73 in 10.0 mi South 6.9 mph - N/A   Overcast
6:34 PM 10.4 °F -2.4 °F 3.2 °F 73% 29.70 in 10.0 mi South 9.2 mph - N/A   Overcast
6:54 PM 10.4 °F -4.1 °F 5.0 °F 79% 29.68 in 2.5 mi South 11.5 mph - N/A Snow Light Snow
7:14 PM 10.4 °F -4.8 °F 6.8 °F 85% 29.66 in 5.0 mi South 12.7 mph - N/A Snow Light Snow
7:34 PM 10.4 °F -5.4 °F 6.8 °F 85% 29.64 in 4.0 mi South 13.8 mph - N/A Snow Light Snow
7:54 PM 10.4 °F -6.6 °F 6.8 °F 85% 29.61 in 1.8 mi South 16.1 mph - N/A Snow Light Snow
8:14 PM 10.4 °F -5.4 °F 8.6 °F 92% 29.58 in 1.5 mi South 13.8 mph - N/A Snow Light Snow
8:34 PM 10.4 °F -5.4 °F 8.6 °F 92% 29.55 in 1.5 mi South 13.8 mph - N/A Snow Light Snow
8:54 PM 10.4 °F -6.0 °F 8.6 °F 92% 29.52 in 1.0 mi SSE 15.0 mph - N/A Snow Snow
9:14 PM 10.4 °F -6.0 °F 8.6 °F 92% 29.51 in 1.0 mi SSE 15.0 mph - N/A Snow Snow
9:34 PM 10.4 °F -6.0 °F 8.6 °F 92% 29.49 in 1.0 mi SE 15.0 mph - N/A Snow Light Snow
9:54 PM 10.4 °F -6.6 °F 10.4 °F 100% 29.48 in 1.0 mi SSE 16.1 mph - N/A Snow Snow
10:14 PM 12.2 °F -4.3 °F 10.4 °F 92% 29.46 in 1.2 mi SSE 16.1 mph - N/A Snow Light Snow
10:34 PM 12.2 °F -4.3 °F 10.4 °F 92% 29.44 in 2.0 mi SSE 16.1 mph - N/A Snow Light Snow
10:54 PM 12.2 °F -5.3 °F 10.4 °F 92% 29.42 in 10.0 mi SSE 18.4 mph - N/A   Overcast
11:14 PM 12.2 °F -3.1 °F 10.4 °F 92% 29.41 in 10.0 mi SSE 13.8 mph - N/A   Overcast
11:34 PM 12.2 °F -3.7 °F 12.2 °F 100% 29.40 in 7.0 mi SSE 15.0 mph 20.7 mph N/A   Overcast
11:54 PM 14.0 °F -0.2 °F 12.2 °F 93% 29.39 in 10.0 mi South 12.7 mph - N/A   Overcast